Wind_Speed
13 12 12 13 14 15 16 17 18 20 20 20 20 20 19 19 19 18 18 18 18 18 17 17 15 15 16 16 15 16 15 16 16 16 17 16 16 17 17 17 17 17 18
13 12 12 14 15 16 17 18 20 22 23 23 23 23 22 21 22 21 20 19 19 19 18 17 17 17 18 18 18 18 18 18 17 18 19 19 19 19 20 20 20 20 20
9 10 11 13 15 16 17 18 20 21 22 22 22 22 21 21 21 20 19 18 18 17 17 17 18 19 20 20 20 20 20 19 18 19 20 21 21 21 22 22 22 22 22
8 8 9 10 11 13 15 16 18 19 19 19 19 19 18 18 18 18 17 17 17 17 18 19 20 20 21 22 22 22 22 21 20 20 22 22 22 22 23 23 22 22 22
10 8 8 8 9 11 13 16 17 18 18 17 17 16 16 16 16 16 17 17 18 19 21 21 21 21 22 23 24 24 25 24 22 22 24 24 23 23 23 24 24 24 24
10 9 8 7 7 8 11 14 17 17 17 17 16 15 14 14 14 15 16 18 19 21 21 20 18 17 18 19 21 22 23 22 21 22 24 25 25 25 25 25 27 27 27
11 11 9 7 7 7 8 10 11 12 13 14 13 12 12 12 12 13 15 17 18 18 17 16 16 16 17 19 20 21 21 19 18 20 22 24 26 27 27 26 26 25 26
11 11 10 9 8 7 7 8 7 8 8 9 9 10 11 12 13 15 16 17 17 17 17 18 20 20 20 21 22 24 24 20 19 20 22 24 26 26 25 25 24 24 23
11 10 10 10 10 9 8 8 8 9 9 10 10 11 12 13 14 15 16 17 18 19 20 22 23 23 22 22 24 26 27 25 23 24 24 25 26 26 25 25 24 24 24
11 11 10 9 9 9 9 9 8 9 10 10 11 12 13 14 15 16 18 20 21 22 23 24 24 23 23 23 25 27 28 27 26 26 26 26 26 27 26 26 26 25 26
12 12 11 10 9 8 8 10 9 9 9 9 11 12 14 15 16 18 19 20 20 20 21 21 21 22 22 23 25 26 27 26 25 26 25 25 26 26 26 26 26 26 27
13 14 12 11 10 8 8 9 10 10 9 8 9 11 13 14 15 15 16 17 18 18 18 18 18 19 21 23 24 25 26 25 25 25 25 26 26 27 27 28 28 28 28
13 13 13 13 12 11 10 9 10 11 10 9 9 10 11 12 12 12 12 13 14 14 14 15 17 18 20 20 20 22 24 25 24 24 25 26 27 28 29 30 31 31 31
13 14 14 15 14 13 12 11 11 11 11 11 11 10 10 10 9 8 8 9 10 10 11 12 14 15 17 18 19 21 24 26 26 25 26 28 29 30 31 32 33 34 34
16 15 14 15 15 15 15 14 13 14 14 15 14 11 10 10 11 12 11 11 12 12 12 13 14 15 16 18 20 21 24 27 28 28 28 29 30 31 32 33 33 34 35
19 18 16 16 15 14 14 14 14 16 16 17 17 15 14 14 15 16 16 16 16 17 18 19 19 19 20 21 22 24 25 28 31 33 35 35 36 36 37 37 38 39 40
24 22 20 20 19 17 15 13 13 14 16 17 19 19 18 18 19 20 20 21 22 23 24 25 26 26 27 27 28 29 30 32 35 38 40 42 43 43 44 44 45 46 47
26 25 24 23 24 23 19 17 15 16 18 20 23 24 25 26 26 27 27 27 28 29 31 32 32 33 34 34 35 36 37 38 40 43 45 47 48 50 50 51 51 53 54
28 27 28 27 28 29 27 23 21 20 21 24 26 28 29 30 31 32 33 33 34 34 35 36 38 39 40 41 41 42 43 45 47 48 50 52 53 55 56 57 58 59 60
30 32 33 32 31 32 32 30 27 26 26 28 30 32 32 33 34 36 37 37 37 38 39 40 41 43 44 46 47 47 48 49 50 51 52 53 54 56 57 59 60 61 62
34 35 36 36 35 34 34 32 32 31 31 33 35 36 35 36 38 40 42 41 41 41 42 44 45 46 47 48 49 50 50 51 51 52 52 53 54 56 57 58 59 60 61
37 37 37 38 39 38 36 35 35 35 36 39 40 39 38 39 41 44 45 45 45 45 45 46 47 49 50 51 51 51 51 52 53 54 54 56 57 58 60 61 62 63 65
38 37 38 40 41 40 39 38 37 38 40 42 43 42 41 42 45 46 47 46 46 45 46 48 49 50 52 53 52 51 52 52 53 55 57 58 59 60 62 64 65 66 67
36 37 39 41 42 42 40 39 39 39 41 43 43 42 43 44 45 46 47 47 47 48 49 49 50 51 51 51 51 51 52 53 54 56 59 61 62 63 65 66 66 67 67
36 38 39 41 41 41 40 40 39 38 39 42 43 43 45 45 46 47 48 49 49 50 50 51 52 51 50 51 53 55 56 58 58 58 59 61 63 64 65 66 66 66 65
36 39 41 40 39 38 38 38 38 38 39 41 42 44 46 46 48 49 49 49 49 50 52 53 53 53 54 56 58 59 59 59 59 59 58 58 60 62 64 65 67 67 66
Wind_Direction
294 285 279 276 274 272 269 267 266 266 267 266 266 265 262 260 261 265 269 271 270 268 267 267 265 264 262 260 260 259 258 257 258 259 258 256 257 261 264 265 268 270 272
291 285 278 271 270 270 269 266 263 261 262 263 264 263 262 260 261 264 267 269 266 263 261 262 263 264 265 266 266 265 264 263 262 263 263 263 263 265 267 269 270 272 274
304 301 293 284 278 276 276 272 267 262 260 259 260 261 262 262 263 264 266 266 264 262 263 264 265 266 267 267 267 267 267 267 267 267 267 268 269 270 270 271 272 273 275
339 327 316 304 293 285 281 277 274 269 264 260 258 258 258 259 259 261 262 262 263 266 269 269 268 268 268 268 269 269 269 268 270 271 271 272 272 272 272 270 270 272 274
352 342 331 319 305 291 282 277 274 270 265 260 255 252 252 251 253 257 260 261 262 265 267 268 268 268 270 271 271 271 271 270 272 273 274 273 272 270 269 270 269 269 271
358 357 352 342 329 309 293 282 274 266 260 254 249 247 248 250 255 259 262 263 264 266 265 264 265 269 274 275 274 273 271 271 270 268 268 269 269 269 269 273 272 271 272
355 356 354 355 351 338 318 298 284 273 265 257 252 250 251 253 257 262 266 267 266 263 261 262 266 271 275 277 275 272 269 267 266 265 266 268 268 270 272 275 275 275 274
349 353 356 360 359 352 340 324 308 295 285 278 272 269 265 263 266 269 270 269 265 262 262 266 269 271 274 275 274 273 271 269 269 268 268 268 269 271 274 275 275 276 275
344 342 346 355 359 359 353 343 324 309 298 288 281 274 269 270 271 269 268 268 267 268 269 272 274 277 278 276 274 274 274 273 271 271 271 270 270 271 272 272 272 273 272
351 344 339 345 355 359 360 351 333 316 305 294 286 280 276 275 275 274 273 274 275 277 278 278 278 278 277 276 275 275 275 274 273 274 274 271 270 270 270 270 271 271 271
2 359 351 347 347 344 349 352 343 325 310 299 290 284 282 283 284 283 283 284 284 284 284 283 281 280 279 280 281 280 279 279 280 280 278 275 274 273 273 274 274 274 274
6 10 12 8 360 346 339 343 347 341 328 309 298 291 288 289 292 293 293 291 289 288 287 286 285 284 284 284 283 282 282 282 282 281 280 278 276 275 275 274 274 274 274
358 2 8 12 10 0 346 344 347 346 340 327 313 302 297 299 302 303 301 298 296 296 294 291 289 287 287 286 284 283 283 283 282 281 279 276 274 275 275 275 274 274 274
351 356 357 357 360 2 359 357 353 344 336 327 318 309 302 302 304 306 308 309 309 310 307 299 294 293 292 289 288 286 286 286 287 285 282 279 276 275 274 273 274 275 276
336 340 346 346 346 348 352 354 350 345 338 329 322 314 309 307 306 306 306 306 305 307 308 307 303 301 297 294 290 288 287 287 288 289 288 286 284 281 279 278 278 278 278
324 327 331 333 334 335 338 344 344 343 340 334 328 325 322 315 312 313 313 311 308 304 300 296 291 287 284 283 284 283 281 281 281 281 282 282 281 280 278 278 277 277 278
318 320 321 323 321 321 321 324 328 329 329 329 329 329 327 325 324 323 321 317 313 309 305 302 299 296 293 291 289 286 284 283 282 282 282 282 282 280 278 277 276 275 275
312 316 318 319 315 313 311 309 309 312 315 317 320 323 322 322 321 319 318 319 320 317 313 309 305 301 298 296 294 291 289 288 286 285 284 283 282 282 281 279 278 277 277
306 313 316 317 313 310 309 307 304 303 306 309 311 312 313 313 313 311 310 311 311 311 311 308 304 300 297 295 293 291 290 289 288 288 288 287 286 285 284 283 282 281 280
305 310 314 312 309 307 306 303 300 299 300 301 301 300 301 302 301 301 301 301 301 302 302 302 300 298 296 295 294 293 293 292 291 291 291 291 290 288 287 286 285 284 283
304 308 310 306 302 301 298 294 292 291 291 292 293 292 292 293 293 293 292 293 294 296 297 297 295 294 294 294 295 295 294 293 292 292 292 292 292 291 290 289 288 287 286
302 304 304 301 296 292 291 288 285 283 283 284 287 288 289 289 288 288 288 290 292 294 295 294 293 294 295 295 295 294 293 293 292 292 292 293 293 292 291 290 288 287 286
298 299 298 295 292 288 286 285 282 279 279 282 285 287 288 286 285 286 289 290 293 295 296 295 294 295 296 296 296 295 294 293 293 293 292 292 291 289 288 288 288 288 288
293 293 294 293 289 285 286 286 283 280 280 283 286 288 287 287 288 289 291 294 296 297 296 295 294 295 297 297 297 297 296 294 292 290 291 290 289 289 288 289 290 290 290
286 288 292 291 288 286 285 286 285 282 282 284 286 286 287 290 292 293 294 296 297 296 295 295 295 296 296 297 297 296 294 293 292 290 288 289 291 291 291 291 291 290 288
282 284 287 286 284 283 284 285 284 284 285 286 287 289 290 293 294 294 295 295 295 295 295 295 296 296 296 296 296 294 293 292 291 291 290 290 291 291 291 290 289 288 287
Height
5898 5898 5898 5897 5897 5897 5898 5898 5897 5897 5897 5898 5899 5899 5900 5900 5900 5900 5900 5899 5899 5899 5899 5899 5900 5900 5899 5899 5898 5899 5900 5900 5900 5900 5900 5899 5898 5898 5898 5898 5897 5898 5898
5895 5895 5895 5895 5895 5895 5895 5894 5894 5894 5894 5894 5894 5895 5895 5896 5896 5897 5897 5897 5897 5897 5897 5897 5897 5897 5897 5897 5896 5896 5897 5898 5897 5897 5897 5896 5896 5896 5896 5895 5895 5895 5895
5894 5893 5893 5893 5893 5893 5892 5892 5892 5891 5891 5891 5891 5891 5892 5892 5893 5894 5895 5895 5895 5895 5895 5895 5895 5895 5895 5894 5894 5894 5894 5895 5895 5894 5894 5894 5894 5893 5893 5892 5892 5892 5892
5893 5891 5890 5890 5890 5890 5891 5891 5890 5890 5889 5889 5889 5889 5890 5890 5890 5891 5892 5893 5893 5893 5893 5892 5892 5892 5891 5891 5890 5890 5891 5892 5891 5891 5891 5890 5890 5890 5890 5889 5889 5888 5889
5892 5890 5889 5888 5888 5888 5888 5888 5888 5888 5888 5888 5888 5888 5888 5889 5889 5889 5890 5890 5890 5890 5890 5889 5889 5888 5888 5887 5887 5887 5887 5888 5888 5888 5887 5886 5886 5885 5885 5885 5885 5885 5885
5891 5890 5888 5887 5887 5886 5886 5886 5886 5886 5886 5886 5886 5886 5886 5887 5887 5887 5887 5887 5887 5887 5887 5886 5886 5885 5885 5884 5883 5882 5882 5884 5885 5884 5883 5882 5882 5881 5881 5881 5880 5880 5880
5891 5890 5888 5887 5886 5886 5885 5885 5884 5884 5885 5884 5884 5884 5885 5885 5885 5885 5885 5885 5884 5884 5884 5884 5883 5882 5881 5880 5879 5878 5878 5880 5881 5880 5879 5879 5878 5877 5877 5877 5877 5876 5876
5891 5890 5888 5887 5886 5885 5884 5884 5883 5883 5883 5883 5884 5884 5884 5884 5884 5883 5883 5882 5882 5882 5881 5881 5880 5879 5878 5877 5875 5874 5874 5876 5877 5876 5875 5874 5873 5873 5873 5873 5872 5872 5872
5892 5890 5888 5887 5886 5885 5884 5883 5883 5882 5882 5882 5882 5882 5882 5882 5881 5881 5880 5880 5879 5879 5878 5878 5877 5876 5874 5873 5871 5870 5869 5872 5872 5871 5871 5870 5869 5869 5868 5868 5867 5867 5867
5891 5890 5888 5887 5886 5885 5884 5882 5882 5881 5881 5881 5881 5881 5880 5880 5880 5879 5878 5878 5877 5876 5875 5874 5873 5871 5870 5869 5867 5866 5865 5866 5866 5866 5865 5865 5864 5863 5863 5863 5862 5862 5862
5891 5889 5887 5886 5885 5884 5883 5882 5881 5880 5880 5879 5879 5879 5878 5878 5878 5877 5876 5875 5874 5873 5871 5870 5868 5867 5866 5865 5864 5862 5861 5862 5862 5862 5861 5860 5859 5858 5858 5858 5858 5857 5857
5890 5889 5887 5886 5884 5883 5882 5881 5880 5879 5879 5878 5877 5876 5876 5875 5875 5874 5872 5871 5870 5869 5868 5866 5865 5863 5862 5862 5861 5859 5858 5859 5859 5858 5857 5856 5854 5853 5853 5852 5851 5851 5850
5890 5888 5886 5885 5883 5882 5881 5880 5879 5878 5878 5877 5876 5874 5873 5872 5871 5870 5869 5868 5867 5866 5865 5863 5862 5860 5859 5858 5858 5856 5854 5853 5854 5853 5852 5851 5850 5849 5848 5846 5846 5845 5844
5891 5888 5886 5884 5882 5881 5880 5878 5878 5877 5876 5875 5874 5872 5871 5870 5869 5868 5867 5866 5864 5863 5862 5860 5858 5857 5855 5854 5854 5852 5850 5849 5848 5848 5847 5846 5845 5844 5842 5841 5840 5839 5838
5890 5888 5885 5884 5882 5880 5878 5877 5876 5874 5873 5872 5871 5870 5869 5868 5866 5865 5864 5863 5861 5859 5858 5857 5856 5854 5853 5851 5850 5848 5846 5843 5841 5840 5839 5838 5837 5836 5835 5834 5833 5831 5830
5887 5885 5884 5882 5881 5879 5877 5875 5874 5872 5871 5870 5868 5867 5866 5865 5863 5861 5859 5858 5857 5856 5855 5854 5853 5852 5849 5847 5845 5843 5841 5838 5835 5833 5831 5830 5829 5828 5827 5825 5824 5822 5821
5882 5881 5880 5878 5877 5877 5876 5874 5873 5871 5870 5868 5866 5864 5863 5862 5860 5857 5856 5854 5853 5851 5850 5848 5847 5845 5843 5841 5839 5837 5835 5832 5829 5826 5823 5821 5820 5818 5817 5815 5814 5812 5810
5877 5875 5875 5874 5872 5871 5871 5871 5870 5868 5866 5864 5861 5859 5858 5856 5854 5851 5850 5848 5847 5844 5842 5840 5838 5837 5835 5833 5831 5829 5827 5825 5822 5819 5816 5813 5810 5807 5805 5804 5802 5800 5799
5872 5870 5869 5868 5866 5863 5863 5863 5863 5862 5861 5858 5856 5854 5853 5850 5848 5845 5843 5841 5839 5838 5836 5834 5831 5829 5826 5825 5823 5821 5818 5815 5812 5810 5807 5803 5799 5796 5793 5791 5789 5787 5785
5866 5864 5863 5861 5859 5857 5856 5855 5855 5855 5854 5852 5851 5849 5847 5845 5843 5840 5837 5835 5833 5831 5829 5827 5825 5821 5819 5816 5814 5812 5808 5804 5801 5798 5794 5791 5787 5783 5780 5777 5774 5771 5769
5860 5859 5857 5856 5854 5853 5851 5850 5849 5849 5848 5846 5843 5841 5840 5838 5835 5832 5830 5828 5825 5823 5821 5819 5815 5812 5809 5807 5804 5801 5798 5793 5789 5786 5782 5778 5774 5770 5766 5762 5759 5756 5753
5854 5853 5852 5851 5849 5847 5845 5845 5844 5843 5841 5838 5835 5832 5830 5828 5826 5823 5820 5819 5817 5814 5812 5809 5805 5802 5798 5795 5793 5790 5787 5783 5777 5773 5769 5764 5760 5756 5751 5748 5744 5741 5738
5849 5848 5847 5845 5842 5840 5837 5837 5836 5835 5833 5831 5827 5824 5822 5819 5816 5814 5812 5810 5807 5804 5801 5798 5795 5791 5787 5783 5780 5777 5773 5770 5765 5760 5755 5751 5747 5742 5738 5733 5729 5724 5720
5843 5842 5840 5838 5835 5831 5829 5828 5828 5826 5825 5823 5819 5816 5813 5810 5807 5805 5802 5800 5798 5794 5791 5787 5784 5781 5776 5771 5767 5763 5759 5756 5753 5749 5742 5736 5732 5727 5723 5718 5712 5707 5703
5837 5836 5834 5830 5827 5824 5821 5821 5820 5819 5817 5815 5812 5808 5805 5801 5798 5796 5793 5790 5787 5783 5780 5776 5772 5769 5764 5760 5755 5750 5745 5741 5737 5734 5730 5724 5717 5712 5706 5701 5695 5689 5684
5831 5829 5827 5824 5820 5817 5815 5815 5813 5811 5810 5807 5804 5800 5796 5793 5790 5786 5783 5780 5776 5772 5769 5764 5761 5757 5752 5747 5741 5736 5731 5726 5721 5717 5714 5709 5704 5698 5691 5685 5678 5672 5667